796 
ASUS46 KSEW 072210
RWRWA 

WASHINGTON REGIONAL WEATHER ROUNDUP
NATIONAL WEATHER SERVICE SEATTLE WA
200 PM PST TUE DEC 07 2021

NOTE:"FAIR" INDICATES FEW OR NO CLOUDS BELOW 12,000 FEET WITH NO 
SIGNIFICANT WEATHER AND/OR OBSTRUCTIONS TO VISIBILITY.

WAZ507-509-555>559-072300-
SEATTLE, TACOMA, EVERETT, AND VICINITY
  
CITY           SKY/WX    TMP DP  RH WIND       PRES   REMARKS
EVERETT        CLOUDY    47  31  53 S6        29.98S HAZE             
BOEING FIELD   CLOUDY    49  48  97 SE10      29.99F FOG              
RENTON         CLOUDY    49  47  93 S5        29.99F                  
SEATAC AIRPORT CLOUDY    48  47  96 S7        29.99F FOG              
JBLM-MCCHORD   CLOUDY    48  48 100 SW5       29.99F                  
PUYALLUP       PTSUNNY   50  50 100 CALM      30.00F                  
BREMERTON      CLOUDY    46  46 100 S8        29.99F                  
JBLM-FT LEWIS  CLOUDY    48  47  95 S5        29.98F FOG              
TACOMA NARROWS LGT RAIN  45  45 100 SE6       29.99F VSB 1            
$$
 
WAZ001-503-506-510-514-515-072300-
NORTH INTERIOR
  
CITY           SKY/WX    TMP DP  RH WIND       PRES   REMARKS
BELLINGHAM     FOG       42  42 100 NE5       29.97F VSB 1            
FRIDAY HARBOR  CLOUDY    45  42  89 S6        29.99F                  
EASTSOUND      CLOUDY    43  43 100 CALM      29.97F                  
PORT ANGELES   CLOUDY    46  39  76 NE3       29.98F                  
EDIZ HOOK      CLOUDY    44  42  93 CALM      29.98F                  
PORT TOWNSEND  CLOUDY    46  45  93 VRB5      29.97F                  
NAS WHIDBEY    CLOUDY    47  43  86 SE7       30.02F                  
ARLINGTON      CLOUDY    47  45  93 N5        29.99F                  
BURLINGTON     CLOUDY    48  45  87 CALM      29.99F FOG              
$$
 
WAZ020-022-039-040-504-511-512-072300-
SOUTHWEST INTERIOR
  
CITY           SKY/WX    TMP DP  RH WIND       PRES   REMARKS
SHELTON        CLOUDY    48  47  96 S3        29.97F                  
OLYMPIA        CLOUDY    50  48  93 S8        30.00F                  
CHEHALIS       CLOUDY    52  52 100 S6        30.00F                  
KELSO          CLOUDY    49  48  97 SE8       30.02F                  
VANCOUVER      CLOUDY    45  44  97 E5        30.02F FOG              
SCAPPOOSE, OR  LGT RAIN  48  46  93 CALM      30.01F FOG              
PORTLAND, OR   DRIZZLE   46  43  89 SE8       30.02F                  
$$
 
WAZ021-516-517-072300-
WASHINGTON COAST
  
CITY           SKY/WX    TMP DP  RH WIND       PRES   REMARKS
FORKS          CLOUDY    50  49  96 S5        29.94F                  
HOQUIAM        CLOUDY    50  49  96 E3        29.98F FOG              
ASTORIA, OR    CLOUDY    52  51  97 W7        29.98F FOG              
$$
 
WAZ019-023-024-040-567>569-072300-
CASCADE MOUNTAINS AND COLUMBIA GORGE
  
CITY           SKY/WX    TMP DP  RH WIND       PRES   REMARKS
STAMPEDE PASS  CLOUDY    37  36  96 CALM      29.92F FOG              
TROUTDALE, OR  LGT RAIN  45  41  86 E10       30.02F FOG              
HOOD RIVER, OR CLOUDY    43  37  81 CALM      30.02F                  
THE DALLES, OR PTSUNNY   46  37  71 CALM      30.04F                  
$$

WAZ026-027-041>044-520-521-072300-
EAST SLOPES
  
CITY           SKY/WX    TMP DP  RH WIND       PRES   REMARKS
OMAK           CLOUDY    32  26  78 S5        30.04F                  
WENATCHEE      CLOUDY    33  27  78 E5        30.03F                  
ELLENSBURG     CLOUDY    36  29  75 CALM      30.01F                  
YAKIMA         CLOUDY    37  32  82 CALM      30.03F                  
SUNNYSIDE ARPT CLOUDY    39  33  78 CALM      30.04F                  
YAKIMA TC      CLOUDY    35  30  83 N3        30.00F                  
$$

WAZ028-034-035-072300-
COLUMBIA BASIN
  
CITY           SKY/WX    TMP DP  RH WIND       PRES   REMARKS
EPHRATA        CLOUDY    35  26  69 CALM      30.03F                  
MOSES LAKE     CLOUDY    35  28  75 S3        30.04F                  
PASCO          CLOUDY    42  32  67 NE3       30.06F                  
RICHLAND ARPT  CLOUDY    41  35  78 CALM      30.07F                  
HERMISTON, OR  PTSUNNY   43  37  79 CALM      30.03F                  
$$

WAZ036>038-072300-
NORTHEAST WASHINGTON
  
CITY           SKY/WX    TMP DP  RH WIND       PRES   REMARKS
SPOKANE GEIGER FOG       31  29  92 E3        30.00F VSB 1/2          
SPOKANE FELTS  CLOUDY    32  31  96 CALM      30.02F FOG              
FAIRCHILD AFB  CLOUDY    31  31  99 CALM      29.98F FOG              
COEURDALENE,ID CLOUDY    32  30  92 S3        30.01F                  
DEER PARK      CLOUDY    30  26  85 CALM      30.02F                  
$$

WAZ029>033-072300-
SOUTHEAST WASHINGTON
  
CITY           SKY/WX    TMP DP  RH WIND       PRES   REMARKS
PULLMAN        MIX PCPN  34  33  96 E6        30.01F FOG              
LEWISTON, ID   CLOUDY    40  36  86 NE3       30.03F                  
WALLA WALLA    CLOUDY    39  36  89 NW5       30.02F                  
PENDLETON, OR  CLOUDY    43  38  82 NW10      30.00F                  
$$